TOKI (42820 NORAD) Tracking and Keplerian Element Data

This shows tracking and keplerian element data for the satellite.

Feedback or suggestion? Click here.




ElementValue
Catalog42820
NameTOKI
Epoch Orbit5861
Epoch Day198.4897495
Epoch Year2018
RAAN206.5941
Inclination51.6333
Eccentricity0.0002249
Argument of Perigee313.4008
Mean Anonmoly46.6801
Mean Motion15.68990196
Decay Rate0.00023706
L11 42820U 98067MU 18198.48974950 .00023706 00000-0 20564-3 0 9997
L22 42820 51.6333 206.5941 0002249 313.4008 46.6801 15.68990196 58611

Live tracking and technical data element details for TOKI (NORAD 42820). TOKI can be tracked NOW for your location showing map with azimuth and elevation plus other details from your city location.

Track the satellite on the map from your city or location and see movement details for azimuth, elevation, latitude, longitude, range, height, and movement on the map or in text.







IsCatalogInMostPopularTable: catalog: 42820, numindb: 99
Update: records affected: 1



GetName: 42820 TOKI

Hit Count: updated at: Thu, 19 Jul 2018 04:00:01 GMT